Wind_Speed
28 28 30 30 31 30 29 30 30 31 32 32 32 32 31 31 30 29 29 29 28 27
29 31 32 33 34 32 32 32 31 32 33 34 34 34 33 32 32 30 31 32 31 31
30 31 33 34 34 35 36 35 34 34 34 34 34 34 33 34 33 32 32 32 32 33
32 32 33 33 34 35 35 35 36 36 36 36 35 34 34 35 36 36 36 35 34 36
32 34 34 35 36 35 36 36 36 37 38 37 37 36 35 37 36 36 37 37 35 36
33 33 34 35 36 36 37 38 37 37 38 38 38 38 37 38 39 40 41 40 38 38
33 33 34 36 36 36 37 38 39 38 39 39 40 40 40 40 41 41 41 41 41 40
33 33 35 36 37 38 38 39 40 40 40 40 39 39 38 38 40 42 43 43 43 42
33 34 35 36 38 39 39 39 39 39 40 40 40 41 43 45 43 41 39 38 38 42
33 34 36 38 38 39 39 40 39 40 41 42 43 45 46 46 46 42 41 41 40 40
33 35 38 38 39 41 39 39 40 41 44 44 43 43 44 45 44 40 39 39 40 41
35 37 38 39 41 42 40 41 43 42 41 42 43 44 45 44 40 37 38 39 41 43
37 36 38 40 42 40 41 40 40 43 40 42 45 47 46 45 41 37 38 40 42 45
38 37 37 39 41 38 40 39 41 38 40 40 38 40 42 42 42 38 38 37 36 36
Wind_Direction
330 328 324 317 313 307 303 301 301 299 297 294 291 288 286 282 278 276 274 271 268 264
328 325 321 320 316 308 306 302 300 295 292 290 289 287 285 281 277 274 270 269 268 264
323 322 319 316 310 308 306 303 298 294 291 288 285 283 281 279 277 274 270 267 264 262
321 317 314 309 306 303 300 298 295 292 290 287 284 282 278 275 274 272 270 266 263 261
315 316 313 309 305 302 298 297 292 290 288 286 283 281 276 274 271 268 267 265 264 262
314 312 308 304 303 301 299 295 293 289 287 286 284 281 277 272 270 267 265 264 261 261
310 309 306 304 303 302 300 296 294 291 289 286 284 281 277 273 270 267 264 263 260 259
311 308 308 307 306 303 301 297 296 294 291 287 284 281 278 272 266 262 260 258 256 255
312 313 311 309 307 305 302 300 299 294 291 289 285 285 286 283 278 271 264 260 255 251
315 313 313 311 308 305 303 303 298 295 293 289 286 288 289 286 281 274 266 260 258 256
316 314 313 311 308 305 306 304 301 299 297 293 289 294 294 292 288 281 274 267 261 252
317 314 312 309 307 307 307 305 303 301 300 300 297 298 298 295 289 281 274 268 262 256
316 313 309 307 306 307 306 305 307 304 302 301 298 296 298 295 287 279 273 267 261 259
319 313 310 308 308 311 312 311 308 305 306 302 301 302 302 301 295 283 276 269 264 258
Height
871 866 863 859 854 850 845 840 835 831 828 824 821 817 814 810 807 804 800 797 795 793
868 864 859 854 849 842 838 833 829 826 822 817 813 809 805 801 797 795 792 788 786 784
862 859 855 848 842 837 831 825 821 818 814 809 805 801 797 792 788 785 781 779 776 773
857 853 847 841 835 830 824 818 813 809 804 799 795 791 787 783 779 775 771 769 766 762
853 847 840 835 829 823 816 810 806 801 795 789 785 781 777 772 768 764 760 757 756 751
846 839 833 826 821 815 808 802 796 791 785 780 775 770 766 760 755 751 747 745 743 740
841 834 825 819 812 806 800 793 787 781 775 770 764 759 753 748 742 737 734 731 730 728
835 828 820 812 805 798 792 784 777 771 764 758 752 746 740 734 727 722 718 716 714 713
829 822 814 806 798 790 782 775 769 761 753 746 739 733 727 720 713 708 703 699 698 697
825 816 807 800 792 782 774 766 758 750 742 733 725 719 711 704 697 691 686 684 683 681
818 811 802 794 785 774 767 758 748 739 730 721 712 705 696 689 682 676 671 668 666 664
815 805 797 788 777 767 759 749 739 728 719 710 700 692 683 675 668 661 655 651 649 647
810 802 793 783 771 762 752 741 731 720 711 701 689 680 671 663 655 646 639 633 629 628
804 797 788 777 765 755 745 734 723 712 701 691 680 669 659 650 641 631 622 615 611 609